This demonstration page uses our WeatherBlox Daily Observations layout. Learn more.

Left ArrowRight Arrow

Hourly Observations for August 31, 2019

Temp ( °F °C ) Dew Point ( °F °C ) Humidity (%) Winds ( mph kmh ) Pressure ( in mb ) Visibility ( mi km ) Precip ( " mm )
12:15 am 00:15 Clear 73 23 68 20 83 83 Calm 30.12 1020 10 16.0934 0 0
12:35 am 00:35 Clear 73 23 68 20 83 83 W 3 6 30.12 1020 10 16.0934 0 0
12:55 am 00:55 Clear 72 22 68 20 88 88 Calm 30.12 1020 10 16.0934 0 0
1:15 am 01:15 Clear 72 22 68 20 88 88 Calm 30.13 1020 10 16.0934 0 0
1:35 am 01:35 Clear 72 22 66 19 83 83 Calm 30.12 1020 10 16.0934 0 0
1:55 am 01:55 Clear 70 21 66 19 88 88 Calm 30.12 1020 10 16.0934 0 0
2:15 am 02:15 Clear 68 20 66 19 94 94 W 3 6 30.12 1020 10 16.0934 0 0
2:35 am 02:35 Clear 66 19 66 19 100 100 W 3 6 30.13 1020 10 16.0934 0 0
2:55 am 02:55 Clear 66 19 66 19 100 100 Calm 30.12 1020 10 16.0934 0 0
3:15 am 03:15 Clear 66 19 64 18 94 94 W 3 6 30.12 1020 10 16.0934 0 0
3:35 am 03:35 Clear 66 19 64 18 94 94 Calm 30.12 1020 10 16.0934 0 0
3:55 am 03:55 Clear 66 19 64 18 94 94 Calm 30.12 1020 10 16.0934 0 0
4:15 am 04:15 Clear 68 20 64 18 88 88 Calm 30.13 1020 10 16.0934 0 0
4:35 am 04:35 Clear 66 19 64 18 94 94 Calm 30.13 1020 10 16.0934 0 0
4:55 am 04:55 Clear 64 18 64 18 100 100 Calm 30.14 1021 10 16.0934 0 0
5:15 am 05:15 Clear 64 18 64 18 100 100 Calm 30.14 1021 10 16.0934 0 0
5:35 am 05:35 Clear 64 18 64 18 100 100 Calm 30.15 1021 10 16.0934 0 0
5:55 am 05:55 Clear 68 20 64 18 88 88 Calm 30.16 1021 10 16.0934 0 0
6:15 am 06:15 Partly Cloudy 68 20 66 19 94 94 N 6 9 30.17 1022 10 16.0934 0 0
6:35 am 06:35 Partly Cloudy 68 20 64 18 88 88 NNE 5 7 30.18 1022 10 16.0934 0 0
6:55 am 06:55 Sunny 68 20 64 18 88 88 NNE 7 11 30.19 1022 10 16.0934 0 0
7:15 am 07:15 Partly Cloudy 70 21 64 18 83 83 NNE 7 11 30.19 1022 10 16.0934 0 0
7:35 am 07:35 Sunny 70 21 64 18 83 83 NNE 8 13 30.2 1023 10 16.0934 0 0
7:55 am 07:55 Sunny 70 21 64 18 83 83 NNE 8 13 30.2 1023 10 16.0934 0 0
8:15 am 08:15 Partly Cloudy 72 22 64 18 78 78 NNE 10 17 30.21 1023 10 16.0934 0 0
8:35 am 08:35 Partly Cloudy 72 22 64 18 78 78 NNE 9 15 30.21 1023 10 16.0934 0 0
8:55 am 08:55 Partly Cloudy 73 23 64 18 74 74 NNE 12 19 30.22 1023 10 16.0934 0 0
9:15 am 09:15 Partly Cloudy 73 23 64 18 74 74 NNE 12 19 30.22 1023 10 16.0934 0 0
9:35 am 09:35 Cloudy 73 23 64 18 74 74 NE 9 15 30.23 1024 10 16.0934 0 0
9:55 am 09:55 Cloudy 73 23 64 18 74 74 NNE 10 17 30.24 1024 10 16.0934 0 0
10:15 am 10:15 Cloudy 75 24 64 18 69 69 NNE 8 13 30.24 1024 10 16.0934 0 0
10:35 am 10:35 Cloudy 77 25 64 18 65 65 NNE 10 17 30.23 1024 10 16.0934 0 0
10:55 am 10:55 Partly Cloudy 77 25 64 18 65 65 NNE 7 11 30.23 1024 10 16.0934 0 0
11:15 am 11:15 Sunny 79 26 64 18 61 61 N 12 19 30.23 1024 10 16.0934 0 0
11:35 am 11:35 Sunny 79 26 64 18 61 61 NNE 7 11 30.23 1024 10 16.0934 0 0
11:55 am 11:55 Sunny 81 27 64 18 58 58 NNE 9 15 30.23 1024 10 16.0934 0 0
12:15 pm 12:15 Sunny 79 26 64 18 61 61 NNE 7 11 30.23 1024 10 16.0934 0 0
12:35 pm 12:35 Sunny 79 26 64 18 61 61 NNE 6 9 30.22 1023 10 16.0934 0 0
12:55 pm 12:55 Sunny 81 27 66 19 62 62 NE 7 11 30.22 1023 10 16.0934 0 0
1:15 pm 13:15 Sunny 81 27 66 19 62 62 NNE 7 11 30.22 1023 10 16.0934 0 0
1:35 pm 13:35 Sunny 82 28 66 19 58 58 ENE 6 9 30.21 1023 10 16.0934 0 0
1:55 pm 13:55 Sunny 82 28 66 19 58 58 NE 7 11 30.21 1023 10 16.0934 0 0
2:15 pm 14:15 Sunny 82 28 66 19 58 58 N 5 7 30.21 1023 10 16.0934 0 0
2:35 pm 14:35 Sunny 82 28 66 19 58 58 NNE 6 9 30.21 1023 10 16.0934 0 0
2:55 pm 14:55 Sunny 82 28 66 19 58 58 Calm 30.21 1023 10 16.0934 0 0
3:15 pm 15:15 Sunny 84 29 66 19 55 55 NE 7 11 30.2 1023 10 16.0934 0 0
3:35 pm 15:35 Sunny 86 30 66 19 52 52 NNE 6 9 30.2 1023 10 16.0934 0 0
3:55 pm 15:55 Sunny 84 29 66 19 55 55 E 3 6 30.2 1023 10 16.0934 0 0
4:15 pm 16:15 Sunny 84 29 66 19 55 55 Calm 30.19 1022 10 16.0934 0 0
4:35 pm 16:35 Sunny 84 29 68 20 58 58 NNE 5 7 30.19 1022 10 16.0934 0 0
4:55 pm 16:55 Sunny 86 30 68 20 55 55 NE 6 9 30.19 1022 10 16.0934 0 0
5:15 pm 17:15 Sunny 86 30 68 20 55 55 NE 7 11 30.19 1022 10 16.0934 0 0
5:35 pm 17:35 Sunny 86 30 68 20 55 55 NE 9 15 30.19 1022 10 16.0934 0 0
5:55 pm 17:55 Sunny 84 29 68 20 58 58 NE 6 9 30.19 1022 10 16.0934 0 0
6:15 pm 18:15 Sunny 82 28 68 20 62 62 NNE 7 11 30.19 1022 10 16.0934 0 0
6:35 pm 18:35 Sunny 82 28 66 19 58 58 NE 8 13 30.19 1022 10 16.0934 0 0
6:55 pm 18:55 Sunny 82 28 66 19 58 58 NE 8 13 30.2 1023 10 16.0934 0 0
7:15 pm 19:15 Sunny 81 27 66 19 62 62 NNE 7 11 30.2 1023 10 16.0934 0 0
7:35 pm 19:35 Sunny 81 27 66 19 62 62 NE 7 11 30.2 1023 10 16.0934 0 0
7:55 pm 19:55 Clear 81 27 66 19 62 62 NE 7 11 30.2 1023 10 16.0934 0 0
8:15 pm 20:15 Clear 79 26 64 18 61 61 NE 6 9 30.2 1023 10 16.0934 0 0
8:35 pm 20:35 Clear 79 26 64 18 61 61 NE 7 11 30.21 1023 10 16.0934 0 0
8:55 pm 20:55 Clear 79 26 64 18 61 61 NE 8 13 30.21 1023 10 16.0934 0 0
9:15 pm 21:15 Clear 77 25 64 18 65 65 NE 7 11 30.22 1024 10 16.0934 0 0
9:35 pm 21:35 Clear 77 25 64 18 65 65 NE 5 7 30.23 1024 10 16.0934 0 0
9:55 pm 21:55 Clear 77 25 64 18 65 65 NE 5 7 30.23 1024 10 16.0934 0 0
10:15 pm 22:15 Clear 75 24 64 18 69 69 NNE 6 9 30.24 1024 10 16.0934 0 0
10:35 pm 22:35 Clear 73 23 64 18 74 74 NNE 7 11 30.25 1024 10 16.0934 0 0
10:55 pm 22:55 Clear 73 23 63 17 69 69 NNE 6 9 30.25 1024 10 16.0934 0 0
11:15 pm 23:15 Partly Cloudy 73 23 61 16 65 65 NE 7 11 30.26 1025 10 16.0934 0 0
11:35 pm 23:35 Partly Cloudy 72 22 61 16 69 69 NNE 5 7 30.26 1025 10 16.0934 0 0
11:55 pm 23:55 Mostly Cloudy 72 22 59 15 65 65 NNE 3 6 30.27 1025 10 16.0934 0 0

Powered by AerisWeather